CAL521 RCTP-ZGGG

Flight info

Callsign CAL521
Flight time 1h 25m
Altitude 36000
Route CHALI T3 MKG A1 ANPOG R200 OLDID/N0479F361 R200 LAPUG/K0889S1100 R200 GUBLO W22 IDUMA
Aircraft A333/H-SADE1E2E3GHIJ1J3J5M1P2RWXY/LB2D1

Departure

Time 2026-05-07 06:05
Airport Taiwan Taoyuan International Airport (RCTP)

Arrival

Time 2026-05-07 07:31
Airport Guangzhou Baiyun International Airport (ZGGG)
Time Latitude Longitude Altitude Speed Heading
2026-05-07 05:43 25.08081 121.23264 122 ft 0 kts 140°
2026-05-07 05:54 25.08086 121.23260 123 ft 2 kts 140°
2026-05-07 05:55 25.08097 121.23249 122 ft 2 kts 140°
2026-05-07 05:55 25.08109 121.23238 123 ft 2 kts 140°
2026-05-07 05:55 25.08120 121.23228 123 ft 2 kts 140°
2026-05-07 05:55 25.08132 121.23218 122 ft 2 kts 154°
2026-05-07 05:56 25.08146 121.23212 123 ft 2 kts 171°
2026-05-07 05:56 25.08161 121.23212 123 ft 2 kts 186°
2026-05-07 05:56 25.08176 121.23215 122 ft 2 kts 201°
2026-05-07 05:56 25.08189 121.23222 123 ft 2 kts 217°
2026-05-07 05:57 25.08197 121.23231 123 ft 0 kts 228°
2026-05-07 05:57 25.08199 121.23234 123 ft 0 kts 229°
2026-05-07 06:00 25.08191 121.23223 122 ft 4 kts 229°
2026-05-07 06:00 25.08166 121.23173 122 ft 8 kts 266°
2026-05-07 06:00 25.08198 121.23114 122 ft 8 kts 303°
2026-05-07 06:00 25.08182 121.23048 122 ft 11 kts 233°
2026-05-07 06:01 25.08123 121.22968 122 ft 15 kts 229°
2026-05-07 06:01 25.08053 121.22879 122 ft 15 kts 229°
2026-05-07 06:01 25.07982 121.22788 122 ft 16 kts 229°
2026-05-07 06:01 25.07905 121.22691 122 ft 18 kts 229°
2026-05-07 06:02 25.07811 121.22571 122 ft 21 kts 229°
2026-05-07 06:02 25.07716 121.22450 122 ft 20 kts 229°
2026-05-07 06:02 25.07622 121.22333 122 ft 20 kts 228°
2026-05-07 06:02 25.07531 121.22216 122 ft 20 kts 229°
2026-05-07 06:03 25.07441 121.22102 122 ft 19 kts 229°
2026-05-07 06:03 25.07354 121.21991 122 ft 19 kts 229°
2026-05-07 06:03 25.07288 121.21909 122 ft 10 kts 229°
2026-05-07 06:03 25.07281 121.21838 122 ft 10 kts 300°
2026-05-07 06:04 25.07334 121.21775 122 ft 11 kts 316°
2026-05-07 06:04 25.07384 121.21743 122 ft 5 kts 14°
2026-05-07 06:04 25.07423 121.21771 122 ft 7 kts 43°
2026-05-07 06:04 25.07484 121.21846 122 ft 32 kts 49°
2026-05-07 06:05 25.07784 121.22230 123 ft 97 kts 47°
2026-05-07 06:05 25.08348 121.22941 124 ft 149 kts 47°
2026-05-07 06:05 25.09052 121.23840 504 ft 159 kts 48°
2026-05-07 06:05 25.09756 121.24754 1149 ft 155 kts 48°
2026-05-07 06:06 25.10441 121.25634 1754 ft 153 kts 47°
2026-05-07 06:06 25.11151 121.26541 2109 ft 161 kts 47°
2026-05-07 06:06 25.11919 121.27514 2396 ft 175 kts 48°
2026-05-07 06:06 25.12744 121.28570 2687 ft 190 kts 47°
2026-05-07 06:07 25.13837 121.29440 2970 ft 205 kts 18°
2026-05-07 06:07 25.15311 121.29502 3256 ft 223 kts 343°
2026-05-07 06:07 25.16641 121.28534 3589 ft 243 kts 315°
2026-05-07 06:07 25.17795 121.27106 3968 ft 260 kts 313°
2026-05-07 06:08 25.19010 121.25562 4468 ft 272 kts 313°
2026-05-07 06:08 25.20246 121.23996 5201 ft 275 kts 313°
2026-05-07 06:08 25.21518 121.22398 5917 ft 279 kts 314°
2026-05-07 06:08 25.22802 121.20794 6586 ft 284 kts 314°
2026-05-07 06:09 25.24122 121.19151 7263 ft 289 kts 314°
2026-05-07 06:09 25.25468 121.17467 7991 ft 293 kts 311°
2026-05-07 06:09 25.26454 121.15522 8655 ft 301 kts 290°
2026-05-07 06:09 25.27257 121.13390 9355 ft 303 kts 304°
2026-05-07 06:10 25.28436 121.11453 10057 ft 307 kts 299°
2026-05-07 06:10 25.29063 121.09189 10516 ft 321 kts 273°
2026-05-07 06:10 25.28713 121.06716 10830 ft 336 kts 244°
2026-05-07 06:10 25.27330 121.04597 11156 ft 347 kts 222°
2026-05-07 06:11 25.25540 121.02786 11594 ft 358 kts 218°
2026-05-07 06:11 25.23629 121.00959 12296 ft 363 kts 218°
2026-05-07 06:11 25.21748 120.99153 13079 ft 364 kts 218°
2026-05-07 06:11 25.19834 120.97292 13848 ft 367 kts 218°
2026-05-07 06:12 25.17917 120.95410 14337 ft 378 kts 219°
2026-05-07 06:12 25.15927 120.93446 14672 ft 392 kts 219°
2026-05-07 06:12 25.13890 120.91424 15292 ft 398 kts 219°
2026-05-07 06:12 25.11837 120.89381 16026 ft 401 kts 219°
2026-05-07 06:13 25.09751 120.87304 16741 ft 404 kts 219°
2026-05-07 06:13 25.07664 120.85226 17418 ft 408 kts 220°
2026-05-07 06:13 25.05575 120.83147 18075 ft 412 kts 220°
2026-05-07 06:13 25.03430 120.81013 18733 ft 415 kts 220°
2026-05-07 06:14 25.01298 120.78893 19376 ft 419 kts 220°
2026-05-07 06:14 24.99144 120.76750 19992 ft 422 kts 220°
2026-05-07 06:14 24.96939 120.74559 20595 ft 426 kts 220°
2026-05-07 06:14 24.94751 120.72385 21173 ft 429 kts 220°
2026-05-07 06:15 24.92528 120.70177 21738 ft 433 kts 220°
2026-05-07 06:15 24.90305 120.67970 22282 ft 436 kts 220°
2026-05-07 06:15 24.88033 120.65717 22822 ft 439 kts 220°
2026-05-07 06:15 24.85784 120.63488 23335 ft 442 kts 220°
2026-05-07 06:16 24.83487 120.61213 23840 ft 445 kts 220°
2026-05-07 06:16 24.81199 120.58948 24329 ft 448 kts 220°
2026-05-07 06:16 24.78866 120.56641 24812 ft 451 kts 220°
2026-05-07 06:16 24.76520 120.54321 25284 ft 454 kts 220°
2026-05-07 06:17 24.74155 120.52045 25739 ft 456 kts 218°
2026-05-07 06:17 24.71675 120.49883 26180 ft 458 kts 215°
2026-05-07 06:17 24.69113 120.47874 26611 ft 459 kts 213°
2026-05-07 06:17 24.66464 120.45863 27030 ft 462 kts 213°
2026-05-07 06:18 24.63818 120.43864 27431 ft 464 kts 213°
2026-05-07 06:18 24.61164 120.41861 27825 ft 467 kts 213°
2026-05-07 06:18 24.58508 120.39854 28229 ft 468 kts 213°
2026-05-07 06:18 24.55842 120.37839 28768 ft 467 kts 213°
2026-05-07 06:19 24.53196 120.35839 29348 ft 464 kts 213°
2026-05-07 06:19 24.50526 120.33822 29906 ft 461 kts 213°
2026-05-07 06:19 24.47910 120.31846 30420 ft 460 kts 213°
2026-05-07 06:19 24.45292 120.29869 30917 ft 458 kts 213°
2026-05-07 06:20 24.42711 120.27880 31399 ft 456 kts 213°
2026-05-07 06:20 24.40136 120.25874 31873 ft 455 kts 214°
2026-05-07 06:20 24.37587 120.23885 32334 ft 453 kts 214°
2026-05-07 06:20 24.35008 120.21875 32791 ft 452 kts 214°
2026-05-07 06:21 24.32480 120.19909 33228 ft 450 kts 214°
2026-05-07 06:21 24.29919 120.17921 33660 ft 449 kts 214°
2026-05-07 06:21 24.27399 120.15966 34076 ft 447 kts 214°
2026-05-07 06:21 24.24879 120.14012 34454 ft 447 kts 214°
2026-05-07 06:22 24.22362 120.12063 34761 ft 447 kts 214°
2026-05-07 06:22 24.17263 120.08117 35310 ft 450 kts 214°
2026-05-07 06:22 24.14732 120.06159 35585 ft 451 kts 214°
2026-05-07 06:23 24.12180 120.04185 35852 ft 452 kts 214°
2026-05-07 06:23 24.09589 120.02183 35946 ft 453 kts 214°
2026-05-07 06:23 24.04449 119.98216 35951 ft 453 kts 214°
2026-05-07 06:24 23.99336 119.94272 35952 ft 453 kts 214°
2026-05-07 06:24 23.94181 119.90300 35953 ft 453 kts 214°
2026-05-07 06:25 23.89040 119.86343 35954 ft 453 kts 214°
2026-05-07 06:25 23.83914 119.82404 35953 ft 453 kts 214°
2026-05-07 06:26 23.78781 119.78463 35953 ft 453 kts 214°
2026-05-07 06:26 23.73629 119.74513 35953 ft 453 kts 214°
2026-05-07 06:27 23.68489 119.70575 35953 ft 453 kts 214°
2026-05-07 06:27 23.63556 119.66334 35952 ft 454 kts 220°
2026-05-07 06:28 23.59079 119.61468 35953 ft 456 kts 227°
2026-05-07 06:28 23.55157 119.56059 35953 ft 457 kts 233°
2026-05-07 06:29 23.51709 119.50239 35953 ft 458 kts 236°
2026-05-07 06:29 23.48339 119.44401 35953 ft 458 kts 236°
2026-05-07 06:30 23.44943 119.38537 35953 ft 458 kts 236°
2026-05-07 06:30 23.41553 119.32701 35953 ft 458 kts 236°
2026-05-07 06:31 23.38150 119.26852 35953 ft 458 kts 236°
2026-05-07 06:31 23.34741 119.21001 35953 ft 458 kts 236°
2026-05-07 06:32 23.31344 119.15179 35953 ft 458 kts 236°
2026-05-07 06:32 23.27938 119.09348 35953 ft 458 kts 236°
2026-05-07 06:33 23.24524 119.03510 35953 ft 458 kts 236°
2026-05-07 06:33 23.21105 118.97670 35952 ft 460 kts 236°
2026-05-07 06:34 23.17659 118.91793 35952 ft 463 kts 236°
2026-05-07 06:34 23.14200 118.85901 35952 ft 465 kts 236°
2026-05-07 06:35 23.10730 118.79995 35953 ft 467 kts 236°
2026-05-07 06:35 23.07235 118.74050 35953 ft 468 kts 236°
2026-05-07 06:36 23.03758 118.68143 35953 ft 468 kts 236°
2026-05-07 06:36 23.00264 118.62216 35953 ft 468 kts 236°
2026-05-07 06:37 22.96768 118.56295 35953 ft 467 kts 236°
2026-05-07 06:37 22.93261 118.50369 35953 ft 467 kts 236°
2026-05-07 06:38 22.89749 118.44462 35954 ft 467 kts 235°
2026-05-07 06:38 22.86234 118.38561 35953 ft 466 kts 235°
2026-05-07 06:39 22.82738 118.32702 35952 ft 466 kts 235°
2026-05-07 06:39 22.79223 118.26815 35953 ft 466 kts 235°
2026-05-07 06:40 22.75706 118.20931 35953 ft 466 kts 235°
2026-05-07 06:40 22.72179 118.15038 35953 ft 466 kts 235°
2026-05-07 06:41 22.68664 118.09174 35953 ft 466 kts 235°
2026-05-07 06:41 22.65500 118.03077 35946 ft 470 kts 248°
2026-05-07 06:42 22.64717 117.99651 35950 ft 474 kts 261°
2026-05-07 06:42 22.64610 117.96066 35952 ft 477 kts 273°
2026-05-07 06:42 22.65201 117.92545 35952 ft 480 kts 285°
2026-05-07 06:42 22.66466 117.89221 35953 ft 482 kts 298°
2026-05-07 06:43 22.68361 117.86246 35953 ft 483 kts 310°
2026-05-07 06:43 22.70626 117.83569 35957 ft 484 kts 313°
2026-05-07 06:43 22.75303 117.78339 35954 ft 484 kts 313°
2026-05-07 06:44 22.79937 117.73103 35953 ft 484 kts 313°
2026-05-07 06:44 22.84541 117.67831 35953 ft 484 kts 313°
2026-05-07 06:45 22.89156 117.62523 35953 ft 484 kts 313°
2026-05-07 06:45 22.93674 117.57216 35968 ft 482 kts 308°
2026-05-07 06:46 22.97202 117.51112 36038 ft 479 kts 294°
2026-05-07 06:46 22.99180 117.44237 36051 ft 476 kts 279°
2026-05-07 06:47 22.99522 117.37140 36055 ft 473 kts 266°
2026-05-07 06:47 22.99202 117.30006 36054 ft 473 kts 265°
2026-05-07 06:48 22.98874 117.22929 36054 ft 473 kts 266°
2026-05-07 06:48 22.98563 117.15783 36054 ft 473 kts 266°
2026-05-07 06:49 22.98259 117.08675 36053 ft 474 kts 266°
2026-05-07 06:49 22.97949 117.01524 36053 ft 477 kts 266°
2026-05-07 06:50 22.97636 116.94340 36054 ft 479 kts 267°
2026-05-07 06:50 22.97321 116.87128 36054 ft 477 kts 268°
2026-05-07 06:51 22.97012 116.79976 36054 ft 477 kts 268°
2026-05-07 06:51 22.96696 116.72807 36054 ft 477 kts 268°
2026-05-07 06:52 22.96375 116.65625 36054 ft 477 kts 268°
2026-05-07 06:52 22.96051 116.58470 36054 ft 477 kts 268°
2026-05-07 06:53 22.95721 116.51292 36053 ft 477 kts 268°
2026-05-07 06:53 22.95388 116.44124 36053 ft 477 kts 268°
2026-05-07 06:54 22.95043 116.36955 36053 ft 477 kts 267°
2026-05-07 06:54 22.94393 116.29810 36054 ft 478 kts 264°
2026-05-07 06:55 22.93652 116.22636 36054 ft 478 kts 264°
2026-05-07 06:55 22.92917 116.15523 36054 ft 478 kts 264°
2026-05-07 06:56 22.92172 116.08330 36054 ft 478 kts 264°
2026-05-07 06:56 22.91430 116.01170 36054 ft 479 kts 264°
2026-05-07 06:57 22.90685 115.94046 36054 ft 479 kts 264°
2026-05-07 06:57 22.89932 115.86860 36054 ft 479 kts 264°
2026-05-07 06:58 22.89218 115.79708 36054 ft 479 kts 264°
2026-05-07 06:58 22.88502 115.72518 36054 ft 479 kts 264°
2026-05-07 06:59 22.87783 115.65369 36054 ft 480 kts 264°
2026-05-07 06:59 22.87056 115.58203 36054 ft 480 kts 264°
2026-05-07 07:00 22.86326 115.51028 36054 ft 480 kts 264°
2026-05-07 07:00 22.85590 115.43842 36054 ft 480 kts 264°
2026-05-07 07:01 22.84852 115.36665 36053 ft 480 kts 264°
2026-05-07 07:01 22.84115 115.29522 36048 ft 480 kts 264°
2026-05-07 07:02 22.83371 115.22344 36042 ft 480 kts 264°
2026-05-07 07:02 22.82621 115.15161 36035 ft 480 kts 264°
2026-05-07 07:03 22.81870 115.08004 36031 ft 478 kts 264°
2026-05-07 07:03 22.81122 115.00890 36029 ft 476 kts 264°
2026-05-07 07:04 22.80373 114.93793 36028 ft 474 kts 264°
2026-05-07 07:04 22.79622 114.86706 36028 ft 474 kts 264°
2026-05-07 07:05 22.79244 114.83153 35746 ft 477 kts 264°
2026-05-07 07:05 22.78862 114.79569 34989 ft 483 kts 264°
2026-05-07 07:05 22.78477 114.75962 34183 ft 487 kts 264°
2026-05-07 07:05 22.78096 114.72332 33454 ft 488 kts 265°
2026-05-07 07:06 22.77727 114.68698 32744 ft 489 kts 265°
2026-05-07 07:06 22.77355 114.65010 32028 ft 490 kts 265°
2026-05-07 07:06 22.76988 114.61393 31325 ft 490 kts 265°
2026-05-07 07:06 22.76613 114.57722 30609 ft 490 kts 265°
2026-05-07 07:07 22.76235 114.54039 29880 ft 491 kts 265°
2026-05-07 07:07 22.75864 114.50412 29181 ft 490 kts 265°
2026-05-07 07:07 22.75495 114.46774 28557 ft 488 kts 265°
2026-05-07 07:07 22.75123 114.43124 27929 ft 485 kts 265°
2026-05-07 07:08 22.74755 114.39531 27374 ft 481 kts 265°
2026-05-07 07:08 22.74385 114.35928 26946 ft 475 kts 265°
2026-05-07 07:08 22.74026 114.32435 26507 ft 469 kts 265°
2026-05-07 07:08 22.73665 114.28940 26053 ft 464 kts 265°
2026-05-07 07:09 22.73306 114.25475 25597 ft 459 kts 265°
2026-05-07 07:09 22.72956 114.22096 25145 ft 454 kts 265°
2026-05-07 07:09 22.72604 114.18718 24691 ft 450 kts 265°
2026-05-07 07:09 22.72256 114.15380 24237 ft 446 kts 265°
2026-05-07 07:10 22.71912 114.12078 23787 ft 442 kts 265°
2026-05-07 07:10 22.71832 114.08778 23295 ft 436 kts 278°
2026-05-07 07:10 22.72657 114.05673 22838 ft 429 kts 296°
2026-05-07 07:10 22.74312 114.03007 22389 ft 422 kts 314°
2026-05-07 07:11 22.76551 114.01058 21950 ft 417 kts 330°
2026-05-07 07:11 22.79173 113.99759 21526 ft 413 kts 338°
2026-05-07 07:11 22.81833 113.98608 21097 ft 409 kts 339°
2026-05-07 07:11 22.84445 113.97482 20693 ft 405 kts 338°
2026-05-07 07:12 22.87027 113.96389 20336 ft 400 kts 340°
2026-05-07 07:12 22.89676 113.95493 19971 ft 396 kts 345°
2026-05-07 07:12 22.92332 113.94854 19602 ft 392 kts 350°
2026-05-07 07:12 22.95016 113.94429 19240 ft 389 kts 352°
2026-05-07 07:13 22.97682 113.94065 18882 ft 385 kts 353°
2026-05-07 07:13 23.00316 113.93714 18532 ft 382 kts 353°
2026-05-07 07:13 23.02952 113.93360 18192 ft 379 kts 353°
2026-05-07 07:13 23.05524 113.93011 17841 ft 377 kts 353°
2026-05-07 07:14 23.08130 113.92654 17475 ft 375 kts 353°
2026-05-07 07:14 23.10697 113.92303 17109 ft 372 kts 353°
2026-05-07 07:14 23.13228 113.91956 16751 ft 370 kts 353°
2026-05-07 07:14 23.15794 113.91605 16426 ft 372 kts 353°
2026-05-07 07:15 23.18410 113.91245 16107 ft 387 kts 353°
2026-05-07 07:15 23.21075 113.90878 15741 ft 385 kts 353°
2026-05-07 07:15 23.23731 113.90513 15347 ft 382 kts 353°
2026-05-07 07:15 23.26330 113.90155 14948 ft 380 kts 353°
2026-05-07 07:16 23.28965 113.89793 14511 ft 377 kts 353°
2026-05-07 07:16 23.31546 113.89440 14070 ft 375 kts 353°
2026-05-07 07:16 23.34130 113.89085 13635 ft 373 kts 353°
2026-05-07 07:16 23.36691 113.88732 13210 ft 370 kts 353°
2026-05-07 07:17 23.39212 113.88385 12793 ft 368 kts 353°
2026-05-07 07:17 23.41726 113.88038 12376 ft 365 kts 353°
2026-05-07 07:17 23.44245 113.87690 11959 ft 362 kts 352°
2026-05-07 07:17 23.46704 113.87349 11551 ft 360 kts 352°
2026-05-07 07:18 23.49205 113.87003 11134 ft 358 kts 353°
2026-05-07 07:18 23.51646 113.86664 10726 ft 355 kts 353°
2026-05-07 07:18 23.54056 113.86330 10523 ft 346 kts 353°
2026-05-07 07:18 23.56402 113.86005 10436 ft 334 kts 353°
2026-05-07 07:19 23.58677 113.85690 10346 ft 323 kts 353°
2026-05-07 07:19 23.60851 113.85346 10256 ft 312 kts 346°
2026-05-07 07:19 23.62749 113.84312 10113 ft 304 kts 320°
2026-05-07 07:19 23.64010 113.82523 10060 ft 295 kts 295°
2026-05-07 07:20 23.64620 113.80427 10026 ft 285 kts 286°
2026-05-07 07:20 23.65092 113.78344 9854 ft 281 kts 285°
2026-05-07 07:20 23.65550 113.76284 9547 ft 281 kts 285°
2026-05-07 07:20 23.66017 113.74211 9259 ft 280 kts 285°
2026-05-07 07:21 23.66482 113.72177 8984 ft 279 kts 285°
2026-05-07 07:21 23.66946 113.70157 8942 ft 269 kts 285°
2026-05-07 07:21 23.67398 113.68200 8922 ft 258 kts 286°
2026-05-07 07:21 23.67830 113.66332 8896 ft 248 kts 286°
2026-05-07 07:22 23.68247 113.64534 8871 ft 247 kts 286°
2026-05-07 07:22 23.68669 113.62717 8803 ft 248 kts 286°
2026-05-07 07:22 23.69097 113.60875 8539 ft 249 kts 286°
2026-05-07 07:22 23.69522 113.59041 8283 ft 250 kts 286°
2026-05-07 07:23 23.69942 113.57225 8037 ft 250 kts 286°
2026-05-07 07:23 23.70373 113.55365 7788 ft 250 kts 286°
2026-05-07 07:23 23.70796 113.53533 7544 ft 250 kts 285°
2026-05-07 07:23 23.71219 113.51702 7302 ft 250 kts 285°
2026-05-07 07:24 23.71642 113.49873 7065 ft 250 kts 285°
2026-05-07 07:24 23.72067 113.48031 6824 ft 250 kts 285°
2026-05-07 07:24 23.72489 113.46201 6583 ft 250 kts 285°
2026-05-07 07:24 23.72911 113.44369 6342 ft 250 kts 284°
2026-05-07 07:25 23.72046 113.40844 5876 ft 252 kts 224°
2026-05-07 07:25 23.70582 113.39848 5707 ft 250 kts 201°
2026-05-07 07:25 23.68939 113.39304 5560 ft 246 kts 194°
2026-05-07 07:26 23.67275 113.38884 5385 ft 244 kts 193°
2026-05-07 07:26 23.65620 113.38480 5077 ft 246 kts 193°
2026-05-07 07:26 23.63956 113.38061 4753 ft 248 kts 194°
2026-05-07 07:26 23.62264 113.37618 4422 ft 250 kts 194°
2026-05-07 07:27 23.60578 113.37167 4089 ft 252 kts 194°
2026-05-07 07:27 23.58874 113.36705 3753 ft 254 kts 194°
2026-05-07 07:27 23.57190 113.36247 3413 ft 248 kts 194°
2026-05-07 07:27 23.55535 113.35797 3080 ft 240 kts 194°
2026-05-07 07:28 23.53936 113.35363 2763 ft 235 kts 194°
2026-05-07 07:28 23.52385 113.34943 2460 ft 230 kts 194°
2026-05-07 07:28 23.50849 113.34527 2136 ft 220 kts 194°
2026-05-07 07:28 23.49421 113.34141 1867 ft 206 kts 194°
2026-05-07 07:29 23.48078 113.33778 1626 ft 194 kts 194°
2026-05-07 07:29 23.46802 113.33433 1389 ft 186 kts 194°
2026-05-07 07:29 23.45582 113.33102 1130 ft 176 kts 194°
2026-05-07 07:29 23.44422 113.32790 894 ft 166 kts 194°
2026-05-07 07:30 23.43334 113.32495 679 ft 157 kts 194°
2026-05-07 07:30 23.42302 113.32216 476 ft 149 kts 194°
2026-05-07 07:30 23.41318 113.31950 286 ft 145 kts 194°
2026-05-07 07:30 23.40340 113.31688 122 ft 145 kts 193°
2026-05-07 07:31 23.39391 113.31432 50 ft 126 kts 194°
2026-05-07 07:31 23.38696 113.31242 49 ft 78 kts 194°
2026-05-07 07:31 23.38319 113.31139 47 ft 36 kts 199°
2026-05-07 07:31 23.38147 113.31010 47 ft 27 kts 221°
2026-05-07 07:32 23.38029 113.30894 48 ft 20 kts 226°
2026-05-07 07:32 23.38016 113.30763 47 ft 15 kts 283°
2026-05-07 07:32 23.38042 113.30644 46 ft 16 kts 283°
2026-05-07 07:32 23.38070 113.30524 44 ft 14 kts 288°
2026-05-07 07:33 23.38145 113.30490 44 ft 12 kts 12°
2026-05-07 07:33 23.38229 113.30512 44 ft 12 kts 14°
2026-05-07 07:33 23.38318 113.30537 44 ft 13 kts 13°
2026-05-07 07:33 23.38413 113.30563 44 ft 14 kts 13°
2026-05-07 07:34 23.38512 113.30589 44 ft 14 kts 13°
2026-05-07 07:34 23.38607 113.30615 46 ft 13 kts 14°
2026-05-07 07:34 23.38697 113.30639 47 ft 13 kts 14°
2026-05-07 07:34 23.38791 113.30664 47 ft 14 kts 14°
2026-05-07 07:35 23.38889 113.30691 47 ft 14 kts 14°
2026-05-07 07:35 23.38988 113.30718 47 ft 15 kts 13°
2026-05-07 07:35 23.39093 113.30746 47 ft 15 kts 14°
2026-05-07 07:35 23.39207 113.30778 47 ft 17 kts 13°
2026-05-07 07:36 23.39328 113.30809 47 ft 17 kts 14°
2026-05-07 07:36 23.39443 113.30840 49 ft 16 kts 14°
2026-05-07 07:36 23.39552 113.30871 50 ft 16 kts 14°
2026-05-07 07:36 23.39660 113.30900 50 ft 15 kts 11°
2026-05-07 07:37 23.39729 113.30833 50 ft 14 kts 287°
2026-05-07 07:37 23.39777 113.30743 50 ft 14 kts 342°
2026-05-07 07:37 23.39875 113.30752 50 ft 12 kts 359°
2026-05-07 07:37 23.39912 113.30710 50 ft 6 kts 281°
2026-05-07 07:38 23.39923 113.30654 50 ft 8 kts 282°
2026-05-07 07:38 23.39928 113.30588 49 ft 6 kts 246°
2026-05-07 07:38 23.39888 113.30553 48 ft 7 kts 218°
2026-05-07 07:38 23.39851 113.30506 47 ft 8 kts 233°
2026-05-07 07:39 23.39817 113.30462 47 ft 2 kts 228°